Time,TemperatureF,DewpointF,PressureIn,WindDirection,WindDirectionDegrees,WindSpeedMPH,WindSpeedGustMPH,Humidity,HourlyPrecipIn,Conditions,Clouds,dailyrainin,SoftwareType,DateUTC
2013-03-01 00:02:00,24.0,14.0,30.09,NNE,24,12.0,14.0,66,0.00,,,0.00,,2013-03-01 05:02:00,
2013-03-01 00:11:00,24.0,14.0,30.09,NNE,24,12.0,14.0,66,0.00,,,0.00,,2013-03-01 05:11:00,
2013-03-01 00:22:00,23.0,14.0,30.09,NNE,21,8.0,12.0,67,0.00,,,0.00,,2013-03-01 05:22:00,
2013-03-01 00:33:00,23.0,14.0,30.09,North,5,7.0,14.0,67,0.00,,,0.00,,2013-03-01 05:33:00,
2013-03-01 00:42:00,23.0,14.0,30.09,North,5,7.0,14.0,67,0.00,,,0.00,,2013-03-01 05:42:00,
2013-03-01 00:53:00,22.0,13.0,30.10,NNE,21,10.0,17.0,68,0.00,,,0.00,,2013-03-01 05:53:00,
2013-03-01 01:02:00,22.0,13.0,30.10,NNE,29,9.0,13.0,69,0.00,,,0.00,,2013-03-01 06:02:00,
2013-03-01 01:12:00,22.0,13.0,30.10,NE,45,6.0,12.0,69,0.00,,,0.00,,2013-03-01 06:12:00,
2013-03-01 01:22:00,22.0,13.0,30.10,NE,45,6.0,12.0,69,0.00,,,0.00,,2013-03-01 06:22:00,
2013-03-01 01:32:00,21.0,12.0,30.10,North,3,10.0,17.0,69,0.00,,,0.00,,2013-03-01 06:32:00,
2013-03-01 01:42:00,21.0,12.0,30.10,North,3,10.0,17.0,69,0.00,,,0.00,,2013-03-01 06:42:00,
2013-03-01 01:53:00,21.0,13.0,30.11,NE,36,10.0,14.0,70,0.00,,,0.00,,2013-03-01 06:53:00,
2013-03-01 02:02:00,21.0,13.0,30.11,NE,34,8.0,17.0,70,0.00,,,0.00,,2013-03-01 07:02:00,
2013-03-01 02:12:00,21.0,13.0,30.11,NE,34,8.0,17.0,70,0.00,,,0.00,,2013-03-01 07:12:00,
2013-03-01 02:22:00,21.0,13.0,30.11,North,3,6.0,12.0,70,0.00,,,0.00,,2013-03-01 07:22:00,
2013-03-01 02:32:00,20.0,12.0,30.12,North,352,6.0,11.0,71,0.00,,,0.00,,2013-03-01 07:32:00,
2013-03-01 02:42:00,20.0,12.0,30.12,North,352,6.0,11.0,71,0.00,,,0.00,,2013-03-01 07:42:00,
2013-03-01 02:52:00,20.0,12.0,30.11,NNE,25,10.0,13.0,71,0.00,,,0.00,,2013-03-01 07:52:00,
2013-03-01 03:02:00,19.0,11.0,30.11,NNE,25,6.0,12.0,72,0.00,,,0.00,,2013-03-01 08:02:00,
2013-03-01 03:12:00,19.0,11.0,30.11,NNE,25,6.0,12.0,72,0.00,,,0.00,,2013-03-01 08:12:00,
2013-03-01 03:22:00,19.0,11.0,30.12,NNE,17,6.0,13.0,72,0.00,,,0.00,,2013-03-01 08:22:00,
2013-03-01 03:32:00,19.0,11.0,30.12,North,8,11.0,15.0,71,0.00,,,0.00,,2013-03-01 08:32:00,
2013-03-01 03:43:00,19.0,11.0,30.12,North,8,11.0,15.0,71,0.00,,,0.00,,2013-03-01 08:43:00,
2013-03-01 03:53:00,19.0,11.0,30.12,North,10,8.0,10.0,72,0.00,,,0.00,,2013-03-01 08:53:00,
2013-03-01 04:02:00,18.0,10.0,30.13,North,6,6.0,12.0,71,0.00,,,0.00,,2013-03-01 09:02:00,
2013-03-01 04:12:00,18.0,10.0,30.13,North,6,6.0,12.0,71,0.00,,,0.00,,2013-03-01 09:12:00,
2013-03-01 04:22:00,18.0,11.0,30.13,NNE,31,10.0,13.0,72,0.00,,,0.00,,2013-03-01 09:22:00,
2013-03-01 04:32:00,17.0,9.0,30.14,NNE,13,4.0,13.0,71,0.00,,,0.00,,2013-03-01 09:32:00,
2013-03-01 04:42:00,17.0,9.0,30.14,NNE,13,4.0,13.0,71,0.00,,,0.00,,2013-03-01 09:42:00,
2013-03-01 04:52:00,17.0,9.0,30.14,North,11,3.0,11.0,71,0.00,,,0.00,,2013-03-01 09:52:00,
2013-03-01 05:02:00,17.0,10.0,30.15,NE,39,7.0,11.0,72,0.00,,,0.00,,2013-03-01 10:02:00,
2013-03-01 05:12:00,17.0,10.0,30.15,NE,39,7.0,11.0,72,0.00,,,0.00,,2013-03-01 10:12:00,
2013-03-01 05:22:00,17.0,10.0,30.15,North,10,7.0,189.0,72,0.00,,,0.00,,2013-03-01 10:22:00,
2013-03-01 05:32:00,17.0,10.0,30.15,NNE,29,5.0,10.0,73,0.00,,,0.00,,2013-03-01 10:32:00,
2013-03-01 05:42:00,17.0,10.0,30.15,NNE,29,5.0,10.0,73,0.00,,,0.00,,2013-03-01 10:42:00,
2013-03-01 05:53:00,17.0,10.0,30.15,NNE,18,5.0,13.0,73,0.00,,,0.00,,2013-03-01 10:53:00,
2013-03-01 06:02:00,16.0,9.0,30.15,NNE,16,5.0,10.0,73,0.00,,,0.00,,2013-03-01 11:02:00,
2013-03-01 06:11:00,16.0,9.0,30.15,NNE,16,5.0,10.0,73,0.00,,,0.00,,2013-03-01 11:11:00,
2013-03-01 06:22:00,16.0,9.0,30.15,NNE,24,3.0,11.0,73,0.00,,,0.00,,2013-03-01 11:22:00,
2013-03-01 06:32:00,16.0,9.0,30.16,NNE,23,5.0,9.0,74,0.00,,,0.00,,2013-03-01 11:32:00,
2013-03-01 06:42:00,16.0,9.0,30.16,NNE,23,5.0,9.0,74,0.00,,,0.00,,2013-03-01 11:42:00,
2013-03-01 06:52:00,17.0,10.0,30.16,North,9,10.0,11.0,74,0.00,,,0.00,,2013-03-01 11:52:00,
2013-03-01 07:02:00,17.0,10.0,30.17,North,5,4.0,9.0,74,0.00,,,0.00,,2013-03-01 12:02:00,
2013-03-01 07:11:00,17.0,10.0,30.17,North,5,4.0,9.0,74,0.00,,,0.00,,2013-03-01 12:11:00,
2013-03-01 07:22:00,17.0,10.0,30.17,NNE,16,5.0,12.0,74,0.00,,,0.00,,2013-03-01 12:22:00,
2013-03-01 07:32:00,16.0,9.0,30.18,North,5,7.0,14.0,74,0.00,,,0.00,,2013-03-01 12:32:00,
2013-03-01 07:42:00,16.0,9.0,30.18,North,5,7.0,14.0,74,0.00,,,0.00,,2013-03-01 12:42:00,
2013-03-01 07:52:00,16.0,9.0,30.18,NNE,12,10.0,16.0,74,0.00,,,0.00,,2013-03-01 12:52:00,
2013-03-01 08:01:00,16.0,9.0,30.19,North,1,8.0,12.0,74,0.00,,,0.00,,2013-03-01 13:01:00,
2013-03-01 08:11:00,16.0,9.0,30.19,NNE,17,9.0,14.0,75,0.00,,,0.00,,2013-03-01 13:11:00,
2013-03-01 08:22:00,16.0,9.0,30.19,NNE,17,9.0,14.0,75,0.00,,,0.00,,2013-03-01 13:22:00,
2013-03-01 08:32:00,16.0,10.0,30.19,NNE,16,8.0,13.0,76,0.00,,,0.00,,2013-03-01 13:32:00,
2013-03-01 08:42:00,16.0,10.0,30.19,NNE,16,8.0,13.0,76,0.00,,,0.00,,2013-03-01 13:42:00,
2013-03-01 08:52:00,16.0,10.0,30.20,NNE,18,6.0,13.0,76,0.00,,,0.00,,2013-03-01 13:52:00,
2013-03-01 09:01:00,16.0,10.0,30.20,NNE,23,9.0,10.0,76,0.00,,,0.00,,2013-03-01 14:01:00,
2013-03-01 09:11:00,16.0,10.0,30.20,NNE,23,9.0,10.0,76,0.00,,,0.00,,2013-03-01 14:11:00,
2013-03-01 09:21:00,16.0,9.0,30.21,NNE,24,6.0,14.0,75,0.00,,,0.00,,2013-03-01 14:21:00,
2013-03-01 09:32:00,16.0,9.0,30.20,NE,46,9.0,10.0,74,0.00,,,0.00,,2013-03-01 14:32:00,
2013-03-01 09:42:00,16.0,9.0,30.20,NE,46,9.0,10.0,74,0.00,,,0.00,,2013-03-01 14:42:00,
2013-03-01 09:52:00,16.0,9.0,30.20,NNE,12,5.0,10.0,75,0.00,,,0.00,,2013-03-01 14:52:00,
2013-03-01 10:02:00,16.0,10.0,30.20,North,11,6.0,10.0,76,0.00,,,0.00,,2013-03-01 15:02:00,
2013-03-01 10:11:00,17.0,11.0,30.20,North,2,5.0,9.0,76,0.00,,,0.00,,2013-03-01 15:11:00,
2013-03-01 10:21:00,17.0,11.0,30.20,North,2,5.0,9.0,76,0.00,,,0.00,,2013-03-01 15:21:00,
2013-03-01 10:32:00,17.0,10.0,30.21,NNE,27,7.0,12.0,75,0.00,,,0.00,,2013-03-01 15:32:00,
2013-03-01 10:42:00,17.0,10.0,30.21,NNE,27,7.0,12.0,75,0.00,,,0.00,,2013-03-01 15:42:00,
2013-03-01 10:52:00,17.0,10.0,30.21,NNE,16,10.0,11.0,75,0.00,,,0.00,,2013-03-01 15:52:00,
2013-03-01 11:01:00,17.0,10.0,30.21,NNE,20,10.0,10.0,75,0.00,,,0.00,,2013-03-01 16:01:00,
2013-03-01 11:11:00,17.0,10.0,30.21,NNE,20,10.0,10.0,75,0.00,,,0.00,,2013-03-01 16:11:00,
2013-03-01 11:21:00,18.0,11.0,30.21,NE,44,13.0,13.0,74,0.00,,,0.00,,2013-03-01 16:21:00,
2013-03-01 11:32:00,18.0,11.0,30.21,NNE,21,6.0,12.0,74,0.00,,,0.00,,2013-03-01 16:32:00,
2013-03-01 11:42:00,18.0,11.0,30.21,NNE,21,6.0,12.0,74,0.00,,,0.00,,2013-03-01 16:42:00,
2013-03-01 11:52:00,18.0,11.0,30.21,NNE,33,11.0,12.0,73,0.00,,,0.00,,2013-03-01 16:52:00,
2013-03-01 12:01:00,18.0,11.0,30.22,NE,47,6.0,12.0,72,0.00,,,0.00,,2013-03-01 17:01:00,
2013-03-01 12:11:00,18.0,11.0,30.22,NE,47,6.0,12.0,72,0.00,,,0.00,,2013-03-01 17:11:00,
2013-03-01 12:21:00,18.0,11.0,30.22,East,88,2.0,11.0,72,0.00,,,0.00,,2013-03-01 17:21:00,
2013-03-01 12:32:00,19.0,11.0,30.22,North,7,4.0,8.0,72,0.00,,,0.00,,2013-03-01 17:32:00,
2013-03-01 12:42:00,19.0,11.0,30.22,NE,39,6.0,11.0,71,0.00,,,0.00,,2013-03-01 17:42:00,
2013-03-01 12:52:00,19.0,11.0,30.22,NE,39,6.0,11.0,71,0.00,,,0.00,,2013-03-01 17:52:00,
2013-03-01 13:01:00,20.0,12.0,30.21,NNE,16,3.0,11.0,71,0.00,,,0.00,,2013-03-01 18:01:00,
2013-03-01 13:12:00,20.0,12.0,30.21,NNE,16,3.0,11.0,71,0.00,,,0.00,,2013-03-01 18:12:00,
2013-03-01 13:22:00,21.0,13.0,30.21,North,352,9.0,10.0,70,0.00,,,0.00,,2013-03-01 18:22:00,
2013-03-01 13:32:00,21.0,13.0,30.20,North,354,8.0,10.0,70,0.00,,,0.00,,2013-03-01 18:32:00,
2013-03-01 13:42:00,22.0,14.0,30.20,NNW,346,9.0,9.0,70,0.00,,,0.00,,2013-03-01 18:42:00,
2013-03-01 13:52:00,22.0,14.0,30.20,NNW,346,9.0,9.0,70,0.00,,,0.00,,2013-03-01 18:52:00,
2013-03-01 14:01:00,21.0,13.0,30.20,North,353,7.0,13.0,71,0.00,,,0.00,,2013-03-01 19:01:00,
2013-03-01 14:11:00,21.0,13.0,30.20,North,353,7.0,13.0,71,0.00,,,0.00,,2013-03-01 19:11:00,
2013-03-01 14:21:00,21.0,13.0,30.19,NNW,348,8.0,12.0,71,0.00,,,0.00,,2013-03-01 19:21:00,
2013-03-01 14:32:00,22.0,14.0,30.19,NNW,347,6.0,10.0,70,0.00,,,0.00,,2013-03-01 19:32:00,
2013-03-01 14:42:00,22.0,14.0,30.19,NNW,347,6.0,10.0,70,0.00,,,0.00,,2013-03-01 19:42:00,
2013-03-01 14:51:00,22.0,13.0,30.19,NNW,340,6.0,10.0,68,0.00,,,0.00,,2013-03-01 19:51:00,
2013-03-01 15:01:00,23.0,14.0,30.19,North,5,8.0,11.0,67,0.00,,,0.00,,2013-03-01 20:01:00,
2013-03-01 15:11:00,23.0,14.0,30.19,North,5,8.0,11.0,67,0.00,,,0.00,,2013-03-01 20:11:00,
2013-03-01 15:21:00,23.0,13.0,30.18,North,353,12.0,12.0,66,0.00,,,0.00,,2013-03-01 20:21:00,
2013-03-01 15:32:00,24.0,14.0,30.18,North,4,4.0,12.0,66,0.00,,,0.00,,2013-03-01 20:32:00,
2013-03-01 15:42:00,24.0,14.0,30.18,North,4,4.0,12.0,66,0.00,,,0.00,,2013-03-01 20:42:00,
2013-03-01 15:52:00,24.0,14.0,30.18,NNW,348,10.0,13.0,65,0.00,,,0.00,,2013-03-01 20:52:00,
2013-03-01 16:01:00,24.0,14.0,30.18,NW,323,7.0,12.0,65,0.00,,,0.00,,2013-03-01 21:01:00,
2013-03-01 16:11:00,24.0,14.0,30.18,NNW,328,7.0,10.0,65,0.00,,,0.00,,2013-03-01 21:11:00,
2013-03-01 16:21:00,24.0,14.0,30.18,NNW,328,7.0,10.0,65,0.00,,,0.00,,2013-03-01 21:21:00,
2013-03-01 16:32:00,24.0,14.0,30.17,North,358,8.0,14.0,66,0.00,,,0.00,,2013-03-01 21:32:00,
2013-03-01 16:42:00,24.0,14.0,30.17,North,358,8.0,14.0,66,0.00,,,0.00,,2013-03-01 21:42:00,
2013-03-01 16:52:00,24.0,14.0,30.17,North,358,8.0,14.0,66,0.00,,,0.00,,2013-03-01 21:52:00,
2013-03-01 17:01:00,24.0,14.0,30.17,North,358,8.0,14.0,66,0.00,,,0.00,,2013-03-01 22:01:00,
2013-03-01 17:11:00,24.0,14.0,30.17,North,358,8.0,14.0,66,0.00,,,0.00,,2013-03-01 22:11:00,
2013-03-01 18:52:00,24.0,13.0,30.20,North,1,7.0,12.0,62,0.00,,,0.00,,2013-03-01 23:52:00,
2013-03-01 19:02:00,23.0,12.0,30.20,North,359,5.0,10.0,62,0.00,,,0.00,,2013-03-02 00:02:00,
2013-03-01 19:12:00,23.0,12.0,30.20,North,359,5.0,10.0,62,0.00,,,0.00,,2013-03-02 00:12:00,
2013-03-01 19:22:00,23.0,13.0,30.20,NNW,348,8.0,13.0,64,0.00,,,0.00,,2013-03-02 00:22:00,
2013-03-01 19:32:00,23.0,13.0,30.21,NNE,17,10.0,13.0,65,0.00,,,0.00,,2013-03-02 00:32:00,
2013-03-01 19:42:00,23.0,13.0,30.21,NNE,17,10.0,13.0,65,0.00,,,0.00,,2013-03-02 00:42:00,
2013-03-01 19:52:00,23.0,13.0,30.21,NNE,26,8.0,12.0,65,0.00,,,0.00,,2013-03-02 00:52:00,
2013-03-01 20:01:00,22.0,12.0,30.21,North,10,0.0,12.0,64,0.00,,,0.00,,2013-03-02 01:01:00,
2013-03-01 20:11:00,22.0,12.0,30.21,North,10,0.0,12.0,64,0.00,,,0.00,,2013-03-02 01:11:00,
2013-03-01 20:21:00,22.0,12.0,30.21,North,11,6.0,10.0,64,0.00,,,0.00,,2013-03-02 01:21:00,
2013-03-01 20:32:00,22.0,12.0,30.22,North,9,12.0,12.0,66,0.00,,,0.00,,2013-03-02 01:32:00,
2013-03-01 20:41:00,22.0,12.0,30.22,North,9,12.0,12.0,66,0.00,,,0.00,,2013-03-02 01:41:00,
2013-03-01 20:51:00,22.0,12.0,30.21,North,5,9.0,12.0,64,0.00,,,0.00,,2013-03-02 01:51:00,
2013-03-01 21:01:00,22.0,11.0,30.21,North,5,10.0,13.0,61,0.00,,,0.00,,2013-03-02 02:01:00,
2013-03-01 21:11:00,22.0,11.0,30.21,North,5,10.0,13.0,61,0.00,,,0.00,,2013-03-02 02:11:00,
2013-03-01 21:22:00,22.0,11.0,30.21,North,11,8.0,12.0,61,0.00,,,0.00,,2013-03-02 02:22:00,
2013-03-01 21:32:00,21.0,10.0,30.21,NNE,25,10.0,10.0,62,0.00,,,0.00,,2013-03-02 02:32:00,
2013-03-01 21:42:00,21.0,10.0,30.21,NNE,25,10.0,10.0,62,0.00,,,0.00,,2013-03-02 02:42:00,
2013-03-01 21:52:00,21.0,10.0,30.21,NNE,14,10.0,12.0,62,0.00,,,0.00,,2013-03-02 02:52:00,
2013-03-01 22:02:00,21.0,10.0,30.20,North,4,9.0,12.0,62,0.00,,,0.00,,2013-03-02 03:02:00,
2013-03-01 22:11:00,21.0,10.0,30.20,North,4,9.0,12.0,62,0.00,,,0.00,,2013-03-02 03:11:00,
2013-03-01 22:21:00,21.0,10.0,30.20,NNE,12,6.0,12.0,62,0.00,,,0.00,,2013-03-02 03:21:00,
2013-03-01 22:32:00,20.0,9.0,30.20,North,10,6.0,8.0,62,0.00,,,0.00,,2013-03-02 03:32:00,
2013-03-01 22:42:00,20.0,9.0,30.20,North,10,6.0,8.0,62,0.00,,,0.00,,2013-03-02 03:42:00,
2013-03-01 22:52:00,20.0,9.0,30.20,North,9,4.0,9.0,62,0.00,,,0.00,,2013-03-02 03:52:00,
2013-03-01 23:01:00,19.0,8.0,30.19,North,9,3.0,6.0,62,0.00,,,0.00,,2013-03-02 04:01:00,
2013-03-01 23:11:00,18.0,8.0,30.19,North,11,3.0,6.0,64,0.00,,,0.00,,2013-03-02 04:11:00,
2013-03-01 23:22:00,18.0,8.0,30.19,North,11,3.0,6.0,64,0.00,,,0.00,,2013-03-02 04:22:00,
2013-03-01 23:32:00,18.0,8.0,30.19,NNE,24,4.0,8.0,65,0.00,,,0.00,,2013-03-02 04:32:00,
2013-03-01 23:42:00,18.0,8.0,30.19,NNE,24,4.0,8.0,65,0.00,,,0.00,,2013-03-02 04:42:00,
2013-03-01 23:52:00,18.0,8.0,30.19,NNE,15,5.0,8.0,65,0.00,,,0.00,,2013-03-02 04:52:00,